Total_Precipitation_Accumulation
0.77 0.66 0.75 0.76 0.63 0.70 1.02 0.95 0.88 0.64 0.60 0.69 0.68 0.69 0.67 0.61 0.54 0.48 0.46 0.45 0.42 0.43 0.44 0.46 0.48 0.54 0.67 0.79 0.87 1.00 1.13 1.16 1.14 1.10 1.07 1.06 1.07 1.04 1.04 1.07 1.13 1.19 1.18 1.11
0.79 0.50 0.51 0.56 0.48 0.54 0.65 0.61 0.60 0.50 0.58 0.55 0.54 0.57 0.58 0.53 0.46 0.41 0.42 0.41 0.37 0.35 0.35 0.37 0.40 0.43 0.53 0.68 0.78 0.88 1.00 1.07 1.09 1.08 1.04 1.03 1.01 1.00 0.96 0.99 1.05 1.13 1.18 1.18
0.94 0.51 0.58 0.66 0.55 0.55 0.61 0.58 0.55 0.64 0.60 0.43 0.43 0.51 0.62 0.57 0.46 0.42 0.42 0.41 0.37 0.36 0.34 0.33 0.35 0.42 0.52 0.63 0.68 0.74 0.82 0.90 0.96 0.97 1.00 1.00 0.99 1.02 1.07 1.08 1.11 1.19 1.25 1.28
1.07 0.81 0.96 0.71 0.47 0.46 0.53 0.57 0.53 0.54 0.46 0.41 0.45 0.49 0.53 0.55 0.50 0.44 0.38 0.36 0.36 0.37 0.35 0.34 0.34 0.39 0.50 0.63 0.72 0.78 0.84 0.87 0.88 0.92 0.98 1.02 1.08 1.15 1.24 1.29 1.31 1.36 1.42 1.43
1.12 0.86 0.58 0.37 0.29 0.41 0.52 0.60 0.49 0.43 0.36 0.32 0.34 0.41 0.45 0.43 0.44 0.45 0.40 0.38 0.39 0.41 0.41 0.39 0.40 0.41 0.48 0.62 0.73 0.80 0.88 0.93 0.95 1.01 1.10 1.15 1.25 1.32 1.34 1.43 1.41 1.37 1.36 1.35
1.16 0.94 0.53 0.37 0.19 0.22 0.40 0.61 0.37 0.32 0.33 0.30 0.30 0.43 0.46 0.43 0.45 0.47 0.43 0.40 0.42 0.42 0.40 0.43 0.48 0.50 0.57 0.70 0.81 0.90 0.97 1.07 1.08 1.11 1.17 1.21 1.24 1.22 1.19 1.19 1.17 1.12 1.08 1.04
0.93 0.89 0.49 0.33 0.15 0.15 0.48 0.62 0.36 0.35 0.37 0.35 0.41 0.49 0.45 0.40 0.43 0.45 0.48 0.50 0.51 0.51 0.54 0.60 0.65 0.69 0.78 0.89 1.02 1.08 1.09 1.14 1.12 1.08 1.10 1.08 1.04 0.98 0.92 0.87 0.83 0.80 0.79 0.76
0.67 0.94 0.65 0.33 0.23 0.43 0.60 0.40 0.33 0.32 0.33 0.34 0.34 0.32 0.31 0.32 0.36 0.39 0.42 0.47 0.53 0.60 0.64 0.67 0.75 0.83 0.92 1.04 1.10 1.05 1.00 0.98 0.92 0.83 0.79 0.76 0.75 0.76 0.74 0.72 0.73 0.72 0.69 0.67
0.65 0.73 0.61 0.46 0.47 0.50 0.42 0.38 0.33 0.33 0.31 0.31 0.31 0.32 0.32 0.31 0.32 0.34 0.35 0.37 0.42 0.50 0.57 0.59 0.64 0.68 0.76 0.78 0.75 0.73 0.71 0.72 0.70 0.66 0.64 0.64 0.65 0.68 0.70 0.70 0.71 0.70 0.67 0.69
0.56 0.55 0.46 0.42 0.38 0.35 0.32 0.34 0.32 0.30 0.29 0.27 0.31 0.30 0.29 0.28 0.29 0.31 0.32 0.33 0.35 0.38 0.43 0.48 0.50 0.52 0.55 0.55 0.53 0.55 0.60 0.63 0.65 0.66 0.63 0.63 0.65 0.65 0.70 0.73 0.74 0.73 0.71 0.71
0.49 0.41 0.35 0.32 0.30 0.32 0.29 0.26 0.25 0.25 0.24 0.26 0.27 0.27 0.28 0.29 0.30 0.31 0.31 0.32 0.34 0.41 0.46 0.51 0.50 0.51 0.53 0.56 0.57 0.59 0.62 0.66 0.70 0.71 0.68 0.67 0.67 0.69 0.72 0.77 0.85 0.94 0.92 0.86
0.58 0.42 0.43 0.39 0.31 0.28 0.27 0.27 0.29 0.29 0.28 0.27 0.29 0.32 0.31 0.33 0.34 0.34 0.34 0.33 0.34 0.38 0.44 0.51 0.50 0.51 0.54 0.58 0.63 0.65 0.65 0.66 0.69 0.72 0.73 0.72 0.67 0.68 0.72 0.75 0.79 0.83 0.86 0.89
0.47 0.33 0.31 0.29 0.24 0.23 0.26 0.29 0.31 0.31 0.31 0.32 0.32 0.33 0.35 0.37 0.38 0.37 0.36 0.36 0.40 0.43 0.45 0.49 0.51 0.53 0.57 0.59 0.63 0.67 0.70 0.70 0.70 0.72 0.75 0.76 0.72 0.70 0.72 0.75 0.79 0.78 0.79 0.82
0.27 0.25 0.27 0.24 0.27 0.26 0.27 0.30 0.29 0.30 0.32 0.33 0.35 0.35 0.36 0.37 0.36 0.37 0.42 0.46 0.46 0.44 0.43 0.43 0.43 0.48 0.54 0.56 0.59 0.64 0.67 0.71 0.73 0.72 0.77 0.80 0.81 0.78 0.74 0.74 0.74 0.72 0.73 0.81
0.23 0.27 0.33 0.31 0.28 0.27 0.26 0.25 0.26 0.27 0.28 0.29 0.32 0.35 0.36 0.38 0.40 0.43 0.44 0.44 0.41 0.38 0.38 0.38 0.39 0.43 0.47 0.51 0.55 0.60 0.65 0.71 0.74 0.75 0.77 0.82 0.86 0.88 0.84 0.79 0.76 0.72 0.70 0.76
0.27 0.26 0.27 0.29 0.30 0.28 0.27 0.27 0.29 0.31 0.31 0.31 0.33 0.37 0.39 0.40 0.39 0.40 0.41 0.40 0.39 0.41 0.41 0.39 0.41 0.43 0.44 0.48 0.51 0.56 0.64 0.76 0.82 0.82 0.83 0.85 0.85 0.87 0.87 0.84 0.80 0.75 0.73 0.79
0.40 0.38 0.34 0.35 0.34 0.33 0.34 0.36 0.38 0.38 0.36 0.36 0.37 0.37 0.35 0.33 0.32 0.34 0.37 0.37 0.38 0.40 0.40 0.41 0.43 0.41 0.41 0.45 0.51 0.56 0.61 0.69 0.78 0.77 0.77 0.82 0.85 0.88 0.90 0.90 0.85 0.78 0.77 0.85
0.49 0.50 0.48 0.47 0.45 0.42 0.40 0.39 0.38 0.38 0.39 0.38 0.36 0.34 0.34 0.33 0.35 0.36 0.37 0.35 0.33 0.33 0.37 0.42 0.43 0.39 0.38 0.41 0.48 0.53 0.57 0.61 0.67 0.72 0.75 0.81 0.89 0.89 0.89 0.89 0.86 0.81 0.78 0.82
0.44 0.46 0.46 0.46 0.46 0.45 0.44 0.45 0.44 0.42 0.40 0.38 0.36 0.37 0.37 0.38 0.39 0.40 0.37 0.34 0.34 0.36 0.39 0.40 0.43 0.40 0.39 0.43 0.50 0.52 0.56 0.59 0.62 0.65 0.71 0.79 0.82 0.79 0.81 0.83 0.84 0.82 0.81 0.81
0.43 0.44 0.44 0.45 0.44 0.43 0.45 0.45 0.42 0.41 0.40 0.38 0.38 0.38 0.38 0.39 0.39 0.38 0.35 0.35 0.42 0.46 0.42 0.42 0.41 0.39 0.41 0.45 0.52 0.54 0.55 0.58 0.61 0.64 0.68 0.73 0.76 0.75 0.75 0.77 0.78 0.79 0.79 0.81
0.45 0.44 0.43 0.45 0.46 0.44 0.44 0.42 0.40 0.42 0.42 0.39 0.40 0.41 0.41 0.40 0.37 0.35 0.33 0.35 0.37 0.37 0.37 0.38 0.36 0.38 0.44 0.56 0.61 0.56 0.54 0.57 0.62 0.67 0.70 0.72 0.73 0.72 0.71 0.72 0.73 0.74 0.76 0.77
0.43 0.44 0.45 0.44 0.41 0.42 0.42 0.41 0.41 0.41 0.41 0.41 0.41 0.40 0.39 0.37 0.35 0.32 0.33 0.38 0.39 0.40 0.40 0.37 0.39 0.49 0.64 0.71 0.63 0.57 0.58 0.60 0.63 0.67 0.71 0.72 0.72 0.71 0.68 0.68 0.71 0.70 0.70 0.71
0.39 0.41 0.41 0.42 0.42 0.41 0.39 0.39 0.40 0.39 0.40 0.41 0.42 0.43 0.41 0.39 0.37 0.38 0.40 0.38 0.37 0.41 0.41 0.42 0.50 0.62 0.71 0.65 0.55 0.55 0.58 0.60 0.62 0.63 0.66 0.67 0.67 0.67 0.67 0.66 0.65 0.65 0.67 0.67
0.31 0.31 0.32 0.32 0.30 0.28 0.31 0.32 0.32 0.33 0.34 0.36 0.37 0.38 0.38 0.37 0.34 0.35 0.39 0.40 0.41 0.43 0.41 0.45 0.53 0.60 0.61 0.53 0.49 0.51 0.53 0.54 0.56 0.57 0.58 0.58 0.58 0.59 0.60 0.61 0.61 0.59 0.59 0.60
0.23 0.23 0.21 0.21 0.22 0.24 0.25 0.25 0.24 0.24 0.25 0.28 0.30 0.30 0.31 0.34 0.39 0.38 0.36 0.37 0.38 0.39 0.38 0.40 0.44 0.46 0.45 0.43 0.44 0.46 0.48 0.51 0.56 0.59 0.57 0.55 0.54 0.55 0.54 0.54 0.55 0.55 0.54 0.55
0.18 0.18 0.18 0.18 0.19 0.20 0.20 0.20 0.21 0.22 0.23 0.25 0.27 0.28 0.30 0.32 0.34 0.36 0.36 0.35 0.35 0.36 0.37 0.37 0.37 0.37 0.38 0.39 0.40 0.41 0.43 0.45 0.47 0.49 0.49 0.50 0.51 0.51 0.51 0.50 0.50 0.51 0.52 0.52
0.16 0.16 0.15 0.14 0.15 0.16 0.18 0.19 0.21 0.23 0.25 0.29 0.31 0.30 0.31 0.32 0.33 0.34 0.33 0.32 0.32 0.33 0.34 0.35 0.35 0.36 0.37 0.37 0.37 0.37 0.38 0.40 0.42 0.44 0.45 0.46 0.48 0.49 0.49 0.49 0.50 0.50 0.51 0.51